When you browse on this site, cookies collect data to enhance your experience and personalize the content and advertising you see.
Visit our Privacy Policy to learn more. By continuing to use the site, you agree to this use of cookies and data.
  • In United Kingdom
  • List of Countries
  • For 7 days
  • Water Temperature
  • Satellite Maps
  • Weather Map
  • Weather Widgets
  • user-avatar
    Login

    Hourly Weather Luneville

    Today, 18 February, Monday

    Time Temperature Precipitation Wind Pressure Humidity
    00:00 +5°C° 0 mm 3 mps 745 mmHg 78%
    01:00 +5°C° 0 mm 3 mps 745 mmHg 79%
    02:00 +5°C° 0 mm 3 mps 745 mmHg 79%
    03:00 +5°C° 0 mm 3 mps 745 mmHg 80%
    04:00 +4°C° 0 mm 3 mps 745 mmHg 81%
    05:00 +4°C° 0 mm 3 mps 745 mmHg 82%
    06:00 +4°C° 0 mm 3 mps 745 mmHg 83%
    07:00 +5°C° 0 mm 3 mps 745 mmHg 78%
    08:00 +6°C° 0 mm 4 mps 745 mmHg 73%
    09:00 +7°C° 0 mm 4 mps 745 mmHg 69%
    10:00 +10°C° 0 mm 4 mps 744 mmHg 63%
    11:00 +10°C° 0 mm 5 mps 744 mmHg 57%
    12:00 +13°C° 0 mm 5 mps 744 mmHg 51%
    13:00 +13°C° 0 mm 4 mps 743 mmHg 52%
    14:00 +13°C° 0 mm 4 mps 743 mmHg 52%
    15:00 +13°C° 0 mm 4 mps 743 mmHg 53%
    16:00 +11°C° 0 mm 3 mps 743 mmHg 58%
    17:00 +10°C° 0 mm 3 mps 743 mmHg 63%
    18:00 +8°C° 0 mm 3 mps 743 mmHg 68%
    19:00 +7°C° 0 mm 3 mps 743 mmHg 68%
    20:00 +7°C° 0 mm 3 mps 743 mmHg 68%
    21:00 +6°C° 0 mm 4 mps 743 mmHg 67%
    22:00 +5°C° 0 mm 4 mps 743 mmHg 70%
    23:00 +5°C° 0 mm 4 mps 743 mmHg 72%

    Tomorrow, 19 February, Tuesday

    Time Temperature Precipitation Wind Pressure Humidity
    00:00 +5°C° 0 mm 4 mps 743 mmHg 74%
    01:00 +5°C° 0 mm 4 mps 743 mmHg 76%
    02:00 +5°C° 0 mm 4 mps 743 mmHg 78%
    03:00 +4°C° 0 mm 4 mps 743 mmHg 80%
    04:00 +5°C° 0 mm 4 mps 743 mmHg 81%
    05:00 +5°C° 0 mm 4 mps 743 mmHg 83%
    06:00 +5°C° 0 mm 4 mps 743 mmHg 85%
    07:00 +5°C° 0.7 mm 4 mps 744 mmHg 87%
    08:00 +5°C° 0.7 mm 3 mps 744 mmHg 90%
    09:00 +5°C° 0.7 mm 3 mps 744 mmHg 93%
    10:00 +7°C° 0.3 mm 3 mps 745 mmHg 89%
    11:00 +8°C° 0.3 mm 3 mps 745 mmHg 84%
    12:00 +8°C° 0.3 mm 2 mps 745 mmHg 80%
    13:00 +9°C° 0.1 mm 2 mps 745 mmHg 78%
    14:00 +9°C° 0.1 mm 2 mps 745 mmHg 76%
    15:00 +9°C° 0.1 mm 2 mps 745 mmHg 74%
    16:00 +8°C° 0 mm 2 mps 745 mmHg 79%
    17:00 +7°C° 0 mm 2 mps 745 mmHg 84%
    18:00 +6°C° 0 mm 1 mps 746 mmHg 89%
    19:00 +6°C° 0 mm 1 mps 746 mmHg 89%
    20:00 +6°C° 0 mm 1 mps 746 mmHg 90%
    21:00 +5°C° 0 mm 1 mps 746 mmHg 91%
    22:00 +5°C° 0 mm 1 mps 746 mmHg 91%
    23:00 +5°C° 0 mm 1 mps 746 mmHg 91%

    Day after tomorrow, 20 February, Wednesday

    Time Temperature Precipitation Wind Pressure Humidity
    00:00 +4°C° 0 mm 1 mps 746 mmHg 92%
    01:00 +4°C° 0 mm 1 mps 746 mmHg 92%
    02:00 +4°C° 0 mm 1 mps 746 mmHg 92%
    03:00 +4°C° 0 mm 1 mps 746 mmHg 92%
    04:00 +4°C° 0 mm 1 mps 746 mmHg 91%
    05:00 +4°C° 0 mm 1 mps 746 mmHg 91%
    06:00 +3°C° 0 mm 1 mps 746 mmHg 91%
    07:00 +5°C° 0 mm 1 mps 746 mmHg 86%
    08:00 +6°C° 0 mm 1 mps 747 mmHg 82%
    09:00 +7°C° 0 mm 1 mps 747 mmHg 77%
    10:00 +8°C° 0 mm 2 mps 747 mmHg 72%
    11:00 +9°C° 0 mm 2 mps 747 mmHg 67%
    12:00 +10°C° 0 mm 3 mps 747 mmHg 62%
    13:00 +12°C° 0 mm 2 mps 747 mmHg 62%
    14:00 +12°C° 0 mm 2 mps 747 mmHg 63%
    15:00 +12°C° 0 mm 2 mps 747 mmHg 63%
    16:00 +9°C° 0 mm 2 mps 747 mmHg 70%
    17:00 +8°C° 0 mm 2 mps 747 mmHg 77%
    18:00 +6°C° 0 mm 2 mps 748 mmHg 84%
    19:00 +6°C° 0 mm 2 mps 748 mmHg 86%
    20:00 +6°C° 0 mm 2 mps 748 mmHg 87%
    21:00 +5°C° 0 mm 2 mps 748 mmHg 89%
    22:00 +5°C° 0 mm 2 mps 748 mmHg 89%
    23:00 +5°C° 0 mm 2 mps 749 mmHg 90%

    21 February, Thursday

    Time Temperature Precipitation Wind Pressure Humidity
    00:00 +5°C° 0 mm 2 mps 749 mmHg 90%
    01:00 +5°C° 0 mm 2 mps 749 mmHg 90%
    02:00 +5°C° 0 mm 1 mps 749 mmHg 90%
    03:00 +5°C° 0 mm 1 mps 749 mmHg 90%
    04:00 +4°C° 0 mm 2 mps 749 mmHg 91%
    05:00 +4°C° 0 mm 2 mps 750 mmHg 91%
    06:00 +4°C° 0 mm 2 mps 750 mmHg 91%
    07:00 +6°C° 0 mm 1 mps 750 mmHg 87%
    08:00 +7°C° 0 mm 1 mps 750 mmHg 82%
    09:00 +9°C° 0 mm 1 mps 751 mmHg 78%
    10:00 +10°C° 0 mm 1 mps 751 mmHg 73%
    11:00 +12°C° 0 mm 2 mps 751 mmHg 67%
    12:00 +13°C° 0 mm 2 mps 751 mmHg 61%
    13:00 +13°C° 0 mm 2 mps 751 mmHg 61%
    14:00 +13°C° 0 mm 2 mps 751 mmHg 60%
    15:00 +14°C° 0 mm 2 mps 751 mmHg 60%
    16:00 +12°C° 0 mm 1 mps 751 mmHg 67%
    17:00 +10°C° 0 mm 1 mps 751 mmHg 73%
    18:00 +8°C° 0 mm 0 mps 751 mmHg 80%
    19:00 +7°C° 0 mm 0 mps 752 mmHg 81%
    20:00 +7°C° 0 mm 0 mps 752 mmHg 82%
    21:00 +7°C° 0 mm 0 mps 752 mmHg 84%
    22:00 +6°C° 0 mm 0 mps 753 mmHg 84%
    23:00 +6°C° 0 mm 0 mps 753 mmHg 85%

    22 February, Friday

    Time Temperature Precipitation Wind Pressure Humidity
    00:00 +6°C° 0 mm 0 mps 753 mmHg 86%
    01:00 +6°C° 0 mm 0 mps 753 mmHg 87%
    02:00 +7°C° 0 mm 1 mps 753 mmHg 87%
    03:00 +6°C° 0 mm 1 mps 753 mmHg 88%
    04:00 +6°C° 0 mm 1 mps 754 mmHg 89%
    05:00 +6°C° 0 mm 1 mps 754 mmHg 90%
    06:00 +5°C° 0 mm 2 mps 754 mmHg 91%
    07:00 +6°C° 0 mm 2 mps 754 mmHg 89%
    08:00 +8°C° 0 mm 2 mps 755 mmHg 86%
    09:00 +9°C° 0 mm 2 mps 755 mmHg 83%
    10:00 +11°C° 0 mm 3 mps 755 mmHg 77%
    11:00 +12°C° 0 mm 4 mps 755 mmHg 72%
    12:00 +14°C° 0 mm 4 mps 755 mmHg 67%
    13:00 +14°C° 0 mm 5 mps 755 mmHg 67%
    14:00 +13°C° 0 mm 5 mps 754 mmHg 67%
    15:00 +13°C° 0 mm 5 mps 754 mmHg 67%
    16:00 +12°C° 0 mm 5 mps 754 mmHg 73%
    17:00 +10°C° 0 mm 4 mps 755 mmHg 79%
    18:00 +8°C° 0 mm 4 mps 755 mmHg 85%
    19:00 +7°C° 0 mm 4 mps 755 mmHg 87%
    20:00 +6°C° 0 mm 4 mps 755 mmHg 89%
    21:00 +6°C° 0 mm 4 mps 755 mmHg 91%
    22:00 +5°C° 0 mm 3 mps 755 mmHg 91%
    23:00 +5°C° 0 mm 3 mps 755 mmHg 91%

    23 February, Saturday

    Time Temperature Precipitation Wind Pressure Humidity
    00:00 +5°C° 0 mm 3 mps 755 mmHg 92%
    01:00 +4°C° 0 mm 3 mps 755 mmHg 92%
    02:00 +5°C° 0 mm 2 mps 755 mmHg 92%
    03:00 +5°C° 0 mm 2 mps 755 mmHg 92%
    04:00 +4°C° 0 mm 2 mps 756 mmHg 92%
    05:00 +4°C° 0 mm 2 mps 756 mmHg 92%
    06:00 +4°C° 0 mm 2 mps 756 mmHg 91%
    07:00 +5°C° 0 mm 2 mps 756 mmHg 86%
    08:00 +7°C° 0 mm 2 mps 756 mmHg 80%
    09:00 +8°C° 0 mm 2 mps 756 mmHg 74%
    10:00 +10°C° 0 mm 2 mps 756 mmHg 67%
    11:00 +13°C° 0 mm 2 mps 756 mmHg 60%
    12:00 +14°C° 0 mm 2 mps 756 mmHg 53%
    13:00 +15°C° 0 mm 2 mps 756 mmHg 53%
    14:00 +15°C° 0 mm 2 mps 756 mmHg 53%
    15:00 +15°C° 0 mm 2 mps 755 mmHg 53%
    16:00 +13°C° 0 mm 2 mps 755 mmHg 60%
    17:00 +12°C° 0 mm 2 mps 755 mmHg 68%
    18:00 +9°C° 0 mm 2 mps 755 mmHg 75%
    19:00 +8°C° 0 mm 2 mps 755 mmHg 76%
    20:00 +8°C° 0 mm 2 mps 755 mmHg 78%
    21:00 +8°C° 0 mm 1 mps 755 mmHg 80%
    22:00 +8°C° 0 mm 1 mps 755 mmHg 80%
    23:00 +8°C° 0 mm 1 mps 755 mmHg 81%
    Show more